[Date Prev][Date Next][Thread Prev][Thread Next] - [Date Index][Thread Index][Author Index]
2 Line ISS Keps 6-8
- Subject: [sarex] 2 Line ISS Keps 6-8
- From: "Dave Larsen PhD" <doc@xxxxxxxxxxx>
- Date: Tue, 7 Jun 2005 18:33:30 -0700
ISS
1 25544U 98067A 05158.91338755 .00019396 00000-0 14574-3 0 6450
2 25544 051.6457 308.4336 0004543 217.3785 282.2770 15.72588957374229
----
Via the sarex mailing list at AMSAT.ORG courtesy of AMSAT-NA.
To unsubscribe, send "unsubscribe sarex" to Majordomo@amsat.org
AMSAT Home